Weather in Lgov

Russia / Oryol Oblast     53°16′57″N   35°25′09″E
temp.,
°C
wind,
m/s
gust,
m/s
humid.,
%
clouds,
%
prec.,
mm/h
press.,
hPa
HPBL,
m
10 may, mon
mon1000:00+3nw311825 0.0 1023199
03:00+2nnw39810 0.0 1025157
06:00+2nnw38780 0.0 1026169
09:00+9n47560 0.0 1026607
12:00+12nne68430 0.0 10261732
15:00+13nne79437 0.0 10251736
18:00+12nne595513 0.0 10251190
21:00+7n4127398 0.0 1026239
11 may, tue
tue1100:00+6nne5147272 0.0 1026369
03:00+5nne4127737 0.0 1025303
06:00+6nne5148316 0.0 1025351
09:00+11nne711735 0.0 1024494
12:00+16ne710685 0.0 1022894
15:00+19ne7106620 0.0 10211308
18:00+14ese41185100 1.1 1023626
21:00+10ese39935 1.2 1025358
12 may, wed
wed1200:00+6e38920 0.0 1026160
03:00+5e34940 0.0 102674
06:00+6ene259399 0.0 1026140
09:00+11ene4574100 0.0 1024566
12:00+13ene6564100 0.1 10221263
15:00+9ne3486100 1.5 1020392
18:00+9ese4788100 0.5 1019604
21:00+7e41195100 0.5 1018278
13 may, thu
thu1300:00+9ese7129333 0.4 1017650
03:00+8ese5129546 0.8 1017481
06:00+9se51195100 0.9 1018627
09:00+12se5884100 1.6 1018770
12:00+16sse58633 0.3 10171519
15:00+17sse585749 0.4 10171872
18:00+16se477381 0.0 1016624
21:00+12se3687100 0.0 1017104
14 may, fri
fri1400:00+12ese3786100 0.0 1017132
03:00+11ese41090100 0.0 1016198
06:00+12ese51388100 0.0 1015301
09:00+17ese71379100 0.0 1013744
12:00+19se7127691 0.0 1012973
15:00+19sse91377100 1.8 1011883
18:00+20sse4117799 0.0 10111136
21:00+15s37925 2.8 1011138